Time,TemperatureF,DewpointF,PressureIn,WindDirection,WindDirectionDegrees,WindSpeedMPH,WindSpeedGustMPH,Humidity,HourlyPrecipIn,Conditions,Clouds,dailyrainin,SoftwareType,DateUTC
2013-08-15 00:22:00,48.0,-99.9,-100.00,North,-999,-999.0,-999.0,-999,0.00,,,0.01,,2013-08-15 06:22:00,
2013-08-15 00:32:00,48.0,-99.9,-100.00,North,-999,-999.0,-999.0,-999,0.00,,,0.01,,2013-08-15 06:32:00,
2013-08-15 00:42:00,48.0,-99.9,-100.00,North,-999,-999.0,-999.0,-999,0.00,,,0.01,,2013-08-15 06:42:00,
2013-08-15 01:21:00,45.0,-99.9,-100.00,North,-999,-999.0,-999.0,-999,0.00,,,-99.99,,2013-08-15 07:21:00,
2013-08-15 01:32:00,45.0,-99.9,-100.00,North,-999,-999.0,-999.0,-999,0.00,,,-99.99,,2013-08-15 07:32:00,
2013-08-15 01:42:00,45.0,-99.9,-100.00,North,-999,-999.0,-999.0,-999,0.00,,,-99.99,,2013-08-15 07:42:00,
2013-08-15 02:22:00,44.0,-99.9,-100.00,North,-999,-999.0,-999.0,-999,-99.99,,,-99.99,,2013-08-15 08:22:00,
2013-08-15 02:33:00,44.0,-99.9,-100.00,North,-999,-999.0,-999.0,-999,-99.99,,,-99.99,,2013-08-15 08:33:00,
2013-08-15 02:42:00,44.0,-99.9,-100.00,North,-999,-999.0,-999.0,-999,-99.99,,,-99.99,,2013-08-15 08:42:00,
2013-08-15 03:21:00,43.0,-99.9,-100.00,North,-999,-999.0,-999.0,-999,0.01,,,0.01,,2013-08-15 09:21:00,
2013-08-15 03:33:00,43.0,-99.9,-100.00,North,-999,-999.0,-999.0,-999,0.01,,,0.01,,2013-08-15 09:33:00,
2013-08-15 03:42:00,43.0,-99.9,-100.00,North,-999,-999.0,-999.0,-999,0.01,,,0.01,,2013-08-15 09:42:00,
2013-08-15 04:22:00,41.0,-99.9,-100.00,North,-999,-999.0,-999.0,-999,0.00,,,0.01,,2013-08-15 10:22:00,
2013-08-15 04:32:00,41.0,-99.9,-100.00,North,-999,-999.0,-999.0,-999,0.00,,,0.01,,2013-08-15 10:32:00,
2013-08-15 04:43:00,41.0,-99.9,-100.00,North,-999,-999.0,-999.0,-999,0.00,,,0.01,,2013-08-15 10:43:00,
2013-08-15 05:22:00,40.0,-99.9,-100.00,North,-999,-999.0,-999.0,-999,-99.99,,,0.00,,2013-08-15 11:22:00,
2013-08-15 05:32:00,40.0,-99.9,-100.00,North,-999,-999.0,-999.0,-999,-99.99,,,0.00,,2013-08-15 11:32:00,
2013-08-15 05:42:00,40.0,-99.9,-100.00,North,-999,-999.0,-999.0,-999,-99.99,,,0.00,,2013-08-15 11:42:00,
2013-08-15 06:21:00,39.0,-99.9,-100.00,North,-999,-999.0,-999.0,-999,0.00,,,0.00,,2013-08-15 12:21:00,
2013-08-15 06:32:00,39.0,-99.9,-100.00,North,-999,-999.0,-999.0,-999,0.00,,,0.00,,2013-08-15 12:32:00,
2013-08-15 06:42:00,39.0,-99.9,-100.00,North,-999,-999.0,-999.0,-999,0.00,,,0.00,,2013-08-15 12:42:00,
2013-08-15 07:21:00,38.0,-99.9,-100.00,North,-999,-999.0,-999.0,-999,0.00,,,0.00,,2013-08-15 13:21:00,
2013-08-15 07:32:00,38.0,-99.9,-100.00,North,-999,-999.0,-999.0,-999,0.00,,,0.00,,2013-08-15 13:32:00,
2013-08-15 07:42:00,38.0,-99.9,-100.00,North,-999,-999.0,-999.0,-999,0.00,,,0.00,,2013-08-15 13:42:00,
2013-08-15 07:45:00,39.0,-99.9,-100.00,North,-999,-999.0,-999.0,-999,0.02,,,0.02,,2013-08-15 13:45:00,
2013-08-15 08:22:00,39.0,-99.9,-100.00,North,-999,-999.0,-999.0,-999,0.02,,,0.02,,2013-08-15 14:22:00,
2013-08-15 08:32:00,39.0,-99.9,-100.00,North,-999,-999.0,-999.0,-999,0.02,,,0.02,,2013-08-15 14:32:00,
2013-08-15 09:23:00,48.0,-99.9,-100.00,North,-999,-999.0,-999.0,-999,0.00,,,0.02,,2013-08-15 15:23:00,
2013-08-15 09:34:00,48.0,-99.9,-100.00,North,-999,-999.0,-999.0,-999,0.00,,,0.02,,2013-08-15 15:34:00,
2013-08-15 09:43:00,48.0,-99.9,-100.00,North,-999,-999.0,-999.0,-999,0.00,,,0.02,,2013-08-15 15:43:00,
2013-08-15 09:45:00,57.0,-99.9,-100.00,North,-999,-999.0,-999.0,-999,0.00,,,0.02,,2013-08-15 15:45:00,
2013-08-15 10:26:00,57.0,-99.9,-100.00,North,-999,-999.0,-999.0,-999,0.00,,,0.02,,2013-08-15 16:26:00,
2013-08-15 10:35:00,57.0,-99.9,-100.00,North,-999,-999.0,-999.0,-999,0.00,,,0.02,,2013-08-15 16:35:00,
2013-08-15 10:45:00,65.0,-99.9,-100.00,North,-999,-999.0,-999.0,-999,0.00,,,0.02,,2013-08-15 16:45:00,
2013-08-15 11:31:00,65.0,-99.9,-100.00,North,-999,-999.0,-999.0,-999,0.00,,,0.02,,2013-08-15 17:31:00,
2013-08-15 11:39:00,65.0,-99.9,-100.00,North,-999,-999.0,-999.0,-999,0.00,,,0.02,,2013-08-15 17:39:00,
2013-08-15 11:45:00,75.0,-99.9,-100.00,North,-999,-999.0,-999.0,-999,0.00,,,0.02,,2013-08-15 17:45:00,
2013-08-15 12:45:00,81.0,-99.9,-100.00,North,-999,-999.0,-999.0,-999,0.00,,,0.02,,2013-08-15 18:45:00,
2013-08-15 13:40:00,81.0,-99.9,-100.00,North,-999,-999.0,-999.0,-999,0.00,,,0.02,,2013-08-15 19:40:00,
2013-08-15 13:45:00,85.0,-99.9,-100.00,North,-999,-999.0,-999.0,-999,0.00,,,0.02,,2013-08-15 19:45:00,
2013-08-15 14:34:00,85.0,-99.9,-100.00,North,-999,-999.0,-999.0,-999,0.00,,,0.02,,2013-08-15 20:34:00,
2013-08-15 14:45:00,89.0,-99.9,-100.00,North,-999,-999.0,-999.0,-999,0.00,,,0.02,,2013-08-15 20:45:00,
2013-08-15 15:45:00,88.0,-99.9,-100.00,North,-999,-999.0,-999.0,-999,0.00,,,0.01,,2013-08-15 21:45:00,
2013-08-15 16:29:00,88.0,-99.9,-100.00,North,-999,-999.0,-999.0,-999,0.00,,,0.01,,2013-08-15 22:29:00,
2013-08-15 16:40:00,88.0,-99.9,-100.00,North,-999,-999.0,-999.0,-999,0.00,,,0.01,,2013-08-15 22:40:00,
2013-08-15 16:45:00,90.0,-99.9,-100.00,North,-999,-999.0,-999.0,-999,-99.99,,,0.00,,2013-08-15 22:45:00,
2013-08-15 17:40:00,90.0,-99.9,-100.00,North,-999,-999.0,-999.0,-999,-99.99,,,0.00,,2013-08-15 23:40:00,
2013-08-15 17:45:00,87.0,-99.9,-100.00,North,-999,-999.0,-999.0,-999,0.00,,,0.00,,2013-08-15 23:45:00,
2013-08-15 18:24:00,87.0,-99.9,-100.00,North,-999,-999.0,-999.0,-999,0.00,,,0.00,,2013-08-16 00:24:00,
2013-08-15 18:45:00,82.0,-99.9,-100.00,North,-999,-999.0,-999.0,-999,0.00,,,0.00,,2013-08-16 00:45:00,
2013-08-15 19:26:00,82.0,-99.9,-100.00,North,-999,-999.0,-999.0,-999,0.00,,,0.00,,2013-08-16 01:26:00,
2013-08-15 20:01:00,72.0,-99.9,-100.00,North,-999,-999.0,-999.0,-999,0.00,,,0.00,,2013-08-16 02:01:00,
2013-08-15 20:22:00,74.0,-99.9,-100.00,North,-999,-999.0,-999.0,-999,0.00,,,0.00,,2013-08-16 02:22:00,
2013-08-15 20:44:00,72.0,-99.9,-100.00,North,-999,-999.0,-999.0,-999,0.00,,,0.00,,2013-08-16 02:44:00,
2013-08-15 20:52:00,72.0,-99.9,-100.00,North,-999,-999.0,-999.0,-999,0.00,,,0.00,,2013-08-16 02:52:00,
2013-08-15 21:22:00,62.0,-99.9,-100.00,North,-999,-999.0,-999.0,-999,0.00,,,0.00,,2013-08-16 03:22:00,
2013-08-15 21:34:00,62.0,-99.9,-100.00,North,-999,-999.0,-999.0,-999,0.00,,,0.00,,2013-08-16 03:34:00,
2013-08-15 21:43:00,62.0,-99.9,-100.00,North,-999,-999.0,-999.0,-999,0.00,,,0.00,,2013-08-16 03:43:00,
2013-08-15 22:23:00,54.0,-99.9,-100.00,North,-999,-999.0,-999.0,-999,0.00,,,0.00,,2013-08-16 04:23:00,
2013-08-15 22:33:00,54.0,-99.9,-100.00,North,-999,-999.0,-999.0,-999,0.00,,,0.00,,2013-08-16 04:33:00,
2013-08-15 22:43:00,54.0,-99.9,-100.00,North,-999,-999.0,-999.0,-999,0.00,,,0.00,,2013-08-16 04:43:00,
2013-08-15 22:45:00,51.0,-99.9,-100.00,North,-999,-999.0,-999.0,-999,0.00,,,0.00,,2013-08-16 04:45:00,
2013-08-15 23:22:00,51.0,-99.9,-100.00,North,-999,-999.0,-999.0,-999,0.00,,,0.00,,2013-08-16 05:22:00,
2013-08-15 23:32:00,51.0,-99.9,-100.00,North,-999,-999.0,-999.0,-999,0.00,,,0.00,,2013-08-16 05:32:00,
2013-08-15 23:45:00,49.0,-99.9,-100.00,North,-999,-999.0,-999.0,-999,0.00,,,0.00,,2013-08-16 05:45:00,